1st Responders/1st Detectors/Storm Spotters Weather Summary for Warren County, KY

Forecast Maps


Reg. NEXRAD Animation


National Fire Danger: Day 1 & 2 Map

Current NWS Watch/Warnings

SPC Convective Day 1 Outlook


Day 2 Outlook

(Click images to enlarge|Page will refresh every 5 minutes)
UK Ag. Weather Center Desktop Severe Weather Service[HERE]
Warren County, KY Hazardous Weather Outlook Webcast
(9 AM to 9 PM Mon-Fri)
[Fast]
[Dial-up]


UKAWC 1st Detectors/1st Responders Precision Weather Forecast For WARREN County, Kentucky
(based on the NWS County Digital Forecast)

ISSUED AT 01:00 UTC ON TUESDAY MAR 31 2020
DAY MONDAY TUESDAY
CDT 3HR 9P 10P 11P MIDN 1A 2A 3A 4A 5A 6A 7A 8A 9A 10A 11A NOON 1P 2P 3P 4P 5P 6P
MAX/MIN -- -- -- -- -- -- -- -- -- -- 43° -- -- -- -- -- -- -- -- -- -- 52°
TEMP 56° 54° 52° 52° 50° 49° 49° 47° 47° 47° 45° 45° 47° 49° 49° 50° 49° 49° 49° 50° 49° 49°
SKY COVER 61% 70% 78% 89% 88% 95% 98% 97% 98% 97% 98% 98% 97% 94% 96% 99% 96% 91% 92% 90% 85% 79%
Clouds
DEW PT 38° 38° 38° 38° 38° 38° 38° 38° 38° 40° 40° 40° 40° 40° 40° 40° 41° 43° 43° 43° 41° 40°
RH 50% 54% 59% 61% 62% 68% 65% 70% 71% 76% 79% 82% 79% 73% 70% 68% 74% 83% 76% 73% 74% 73%
POP 12HR -- -- -- -- -- -- -- -- -- -- 66% -- -- -- -- -- -- -- -- -- -- --
RAIN/SNOW (liq.equ) -- -- -- -- 0.00in -- -- -- -- -- 0.02in -- -- -- -- -- 0.13in -- -- -- -- --
SNOWFALL -- -- -- -- 0in -- -- -- -- -- 0in -- -- -- -- -- 0in -- -- -- -- --
WIND SPEED(MPH) 1 2 1 1 6 2 1 2 2 5 5 6 7 7 7 7 7 7 8 8 8 8
WIND Gust(MPH) 2 5 2 2 7 6 7 7 7 7 9 9 13 14 14 10 13 14 15 15 15 15
WIND DIR N N N N NE N NE NE NE NE E E E E NE NE N N N N N N
DEW -- -- -- -- -- -- -- -- -- -- -- -- -- -- -- -- -- -- -- Lgt Dew Lgt Dew Lgt Dew
HeatIndex 56 54 52 52 50 49 49 47 47 47 45 45 47 49 49 50 49 49 49 50 49 49
Rain -- -- -- -- -- -- Slight Chance Chance Likely Likely Definite Definite Definite Likely Likely Definite Definite Definite Chance Chance Chance --
Rain Showers -- -- -- -- -- -- -- -- -- -- -- -- -- -- -- -- -- -- -- -- -- Slight Chance
WIND CHILL -- -- -- -- -- -- -- -- -- -- 43° 42° -- -- -- -- -- -- -- -- -- --
SPRAY COND
DRY COND
LIVESTOCK COLDSTRESS



DAY TUESDAY WEDNESDAY THURSDAY FRIDAY SATURDAY SUNDAY MONDAY
CDT 6HR 7P 8P 9P 10P 11P MIDN 1A 2A 3A 4A 5A 6A 7A 8A 10A 1P 4P 7P 10P 1A 4A 7A 10A 1P 4P 7P 1A 7A 1P 7P 1A 7A 1P 7P 1A 7A 1P 7P 1A 7A 1P 7P
MAX/MIN -- -- -- -- -- -- -- -- -- -- -- -- 36° -- -- -- 56° -- -- -- -- 38° -- -- 63° -- -- 43° 68° -- -- 49° 68° -- -- 49° 68° -- -- 52° 70° --
TEMP 49° 47° 45° 45° 43° 43° 41° 40° 40° 38° 38° 36° 38° 40° 47° 52° 56° 52° 45° 43° 40° 40° 52° 59° 63° 58° 49° 45° 65° 61° 52° 49° 65° 61° 54° 49° 65° 63° 56° 54° 65° 65°
SKY COVER 91% 86% 80% 75% 69% 64% 58% 56% 53% 51% 49% 46% 44% 44% 45% 46% 47% 47% 36% 25% 37% 48% 44% 39% 46% 53% 61% 64% 54% 66% 61% 57% 62% 70% 57% 59% 52% 56% 69% 77% 75% 78%
Clouds
DEW PT 40° 40° 38° 38° 36° 36° 36° 36° 36° 36° 36° 34° 34° 36° 38° 40° 40° 40° 38° 38° 36° 36° 40° 43° 45° 45° 41° 40° 49° 50° 47° 47° 52° 52° 49° 47° 52° 52° 49° 50° 56° 58°
RH 70% 76% 76% 76% 76% 75% 79% 82% 89% 92% 92% 92% 89% 85% 73% 61% 55% 61% 76% 82% 88% 88% 66% 53% 51% 61% 76% 85% 54% 67% 82% 92% 65% 69% 85% 93% 60% 67% 77% 85% 73% 78%
POP 12HR 84% -- -- -- -- -- -- -- -- -- -- -- 5% -- -- -- -- 0% -- -- -- 0% -- -- -- 0% -- 2% -- 12% -- 11% -- 24% -- 29% -- 40% -- 43% -- 48%
RAIN/SNOW (liq.equ) 0.03in -- -- -- -- -- 0.00in -- -- -- -- -- 0.00in -- -- 0.00in -- 0.00in -- 0.00in -- 0.00in -- 0.00in -- 0.00in -- -- -- -- -- -- -- -- -- -- -- -- -- -- -- --
SNOWFALL 0in -- -- -- -- -- 0in -- -- -- -- -- 0in -- -- 0in -- 0in -- 0in -- 0in -- 0in -- 0in -- -- -- -- -- -- -- -- -- -- -- -- -- -- -- --
WIND SPEED(MPH) 7 7 7 7 7 7 7 7 7 7 7 6 6 7 7 6 6 2 1 1 2 2 5 5 6 5 5 2 5 2 1 2 6 6 5 7 7 6 5 7 7 8
WIND DIR N N N N N N N N N N N N N N N N N N NE E E E E E E E E E SE S SE S S NW SW W W NE E S S SW
HeatIndex 49 47 45 40 39 38 37 36 35 34 32 32 33 35 47 52 56 52 45 43 37 37 52 59 63 58 49 43 65 61 52 49 65 61 54 49 65 63 56 54 65 65
Rain -- -- -- -- -- -- -- -- -- -- -- -- -- -- -- -- -- -- -- -- -- -- -- -- -- -- -- -- -- -- -- -- -- -- -- -- -- -- -- -- -- --
Rain Showers -- -- -- -- -- -- -- -- -- -- -- -- -- -- -- -- -- -- -- -- -- -- -- -- -- -- -- -- -- -- -- Slight Chance Slight Chance Slight Chance Chance Chance Chance Chance Chance Chance Chance Chance
WIND CHILL -- -- 41° 41° 39° 39° 36° 35° 35° 33° 33° 31° 34° 35° -- -- -- -- -- -- -- -- -- -- -- -- -- -- -- -- -- -- -- -- -- -- -- -- -- -- -- --
SPRAY COND
DRY COND
LIVESTOCK COLDSTRESS

Click on individual weather variable above in left-hand column (ie., TEMP, RH, QPF 12HR) to view state forecast maps






NWS 48 Hr. Forecast Maps,

Regional Hourly Observations For WARREN County, Kentucky
Issued at 900 PM EDT MON MAR 30 2020
WESTERN AND SOUTH CENTRAL KENTUCKY
  
CITY           SKY/WX    TMP DP  RH WIND       PRES   REMARKS
PADUCAH        FAIR      59  44  57 NW3       30.06F                  
HENDERSON      FAIR      57  41  55 S3        30.09F                  
OWENSBORO      FAIR      59  34  39 CALM      30.09F                  
HOPKINSVILLE   FAIR      60  40  48 CALM      30.06F                  
BOWLING GREEN  FAIR      60  41  49 CALM      30.10F                  
GLASGOW        FAIR      56  32  39 CALM      30.10F                  


Current NOWCAST not available:
Nowcasts are not issued routinely during fair weather. Only when
precipitation or other significant weather is occuring in this county will these
forecasts be issued. Currently, there is no short term forecast in effect.


Fire Weather Forecast For WARREN County, KY
Provided by the National Weather Service:

Issued at: Mon Mar 30 21:05:01 EDT 2020

337 PM EDT Mon Mar 30 2020 /237 PM CDT Mon Mar 30 2020/

                      Tonight      Tue          Tue Night    Wed          

CLOUD COVER           Mcldy        Cloudy       Pcldy        Pcldy        
PRECIP TYPE           Rain         Rain         None         None         
CHANCE PRECIP (%)     30           70           0            0            
TEMP (24H TREND)      42 (-4)      51 (-14)     36           56           
RH % (24H TREND)      86 (+12)     67 (+33)     92           53           
20FTWND-VAL/AM(MPH)                NE  6                     N  5         
20FTWND-RDG/PM(MPH)   Lgt/Var      N  7         N  6         N  6         
PRECIP AMOUNT         0.01         0.12         0.00         0.00         
MIXING HGT(FT-AGL/MSL)             4491                      3668         
TRANSPORT WND (MPH)                N 10                      N 13         
VENT RATE (KT-FT)                  35928                     43500        
DISPERSION                         Marginal                  Fair         
DSI                   SLGT UNSTBL  STBL         SLGT UNSTBL  MOD UNSTBL   
LAL                   1            1            1            1            
HAINES INDEX          4            2            2            2            
ADI EARLY             6 VERY POOR  25 FAIR      12 POOR      0 VERY POOR  
ADI LATE              5 VERY POOR  33 FAIR      0 VERY POOR  0 VERY POOR  
MAX LVORI EARLY       3            4            6            7            
MAX LVORI LATE        4            4            7            4            

REMARKS...ADI IS ATMOSPHERIC DISPERSION INDEX BY LAVDAS.        
LVORI IS LOW VISIBILITY OCCURRENCE RISK INDEX.

.THURSDAY...Partly cloudy. Lows in the upper 30s. Highs in the
lower 60s. North winds around 5 mph. 
.FRIDAY...Mostly cloudy. Lows in the mid 40s. Highs in the upper
60s. Southeast winds up to 5 mph. 
.SATURDAY...Mostly cloudy. Lows in the upper 40s. Highs in the
upper 60s. Southwest winds up to 5 mph. 
.SUNDAY...Mostly cloudy. A 40 percent chance of rain showers.
Lows in the upper 40s. Highs in the upper 60s. West winds around
5 mph. 
.MONDAY...Mostly cloudy with a 50 percent chance of rain showers.
Lows in the lower 50s. Highs in the upper 60s. South winds 5 to
10 mph. 

SPC's Fire Weather Web Tool (Excellent!), SPC's Fire Weather Outlooks, NWS Fire Weather WEB, Fire Danger Class Map,
Keetch-Byram Drought Index, ROMAN Web, Haines Index ,
WFAS's 10-hr Dead Fuel Moist., WFAS's 100-hr Dead Fuel Moist., Probablity of Ignition, Visual blackness Map, Palmer Drought Index, HPC's Rainfall Forecast Maps


Hazardous Weather Outlook For WARREN County, Kentucky
516 PM EDT Mon Mar 30 2020 /416 PM CDT Mon Mar 30 2020/

 DAY ONE  Tonight.

No hazardous weather is expected at this time. 

 DAYS TWO THROUGH SEVEN  Tuesday through Sunday.

No hazardous weather is expected at this time.

 SPOTTER INFORMATION STATEMENT  

Spotter activation is not anticipated at this time.

Latest WARREN County, Kentucky Watches, Warnings and Advisories.
Additional Drought Info.: UKAWC Drought Page, Kentucky Drought Watch


7-Day Forecast For WARREN County, KY

REST OF TONIGHT
Partly cloudy late in the evening then becoming cloudy. Light rain likely by daybreak. Lows in the mid 40s. Northeast winds up to 5 mph. Chance of rain 70 percent.

TUESDAY
Rain. Highs in the lower 50s. Northeast winds 5 to 10 mph. Chance of rain 90 percent.

TUESDAY NIGHT
Mostly cloudy with a 30 percent chance of rain. Lows in the upper 30s. North winds 5 to 10 mph.

WEDNESDAY
Partly cloudy. Highs in the mid 50s. North winds 5 to 10 mph.

WEDNESDAY NIGHT
Partly cloudy. Lows in the upper 30s. Northeast winds up to 5 mph.

THURSDAY
Partly cloudy. Highs in the mid 60s.

THURSDAY NIGHT
Partly cloudy. Lows in the mid 40s.

FRIDAY
Partly cloudy. Highs in the upper 60s.

FRIDAY NIGHT
Partly cloudy. Lows in the upper 40s.

SATURDAY
Partly cloudy with a 20 percent chance of showers. Highs in the upper 60s.

SATURDAY NIGHT
Partly cloudy with a 30 percent chance of showers. Lows in the upper 40s.

SUNDAY
Partly cloudy with a 40 percent chance of showers. Highs in the upper 60s.

SUNDAY NIGHT
Partly cloudy with a 40 percent chance of showers. Lows in the lower 50s.

MONDAY
Mostly cloudy with a 50 percent chance of showers. Highs around 70.

Ag Weather Center, Department of Biosystems & Agricultural Engineering, University of Kentucky